Regional Weather Roundup
Issued by NWS

Home | Current Version | Previous Version | Text Only | Print | Product List | Glossary Off
Versions: 1 2 3 4 5 6 7 8 9 10 11 12 13 14 15 16 17 18 19 20 21 22 23 24 25 26 27 28 29 30 31 32 33 34 35 36 37 38 39 40 41 42 43 44 45 46 47 48 49 50

000
ASUS43 KFSD 301910
RWRSD

WEATHER ROUNDUP FOR SOUTH DAKOTA
NATIONAL WEATHER SERVICE SIOUX FALLS SD
200 PM CDT MON MAY 30 2016

NOTE: "FAIR" INDICATES FEW OR NO CLOUDS BELOW 12,000 FEET WITH NO
SIGNIFICANT WEATHER AND/OR OBSTRUCTIONS TO VISIBILITY.


SDZ001>005-009-010-012>017-302000-
NORTHWEST AND NORTH CENTRAL SOUTH DAKOTA

CITY           SKY/WX    TMP DP  RH WIND       PRES   REMARKS
BUFFALO          N/A     59  52  77 NW22      29.84S
FAITH            N/A     77  54  44 S17G23    29.81S
MOBRIDGE       TSTM      70  60  70 E7        29.83F
$$

SDZ012>016-024>037-041>051-057-063-072>074-302000-
SOUTHWEST AND SOUTH CENTRAL SOUTH DAKOTA

CITY           SKY/WX    TMP DP  RH WIND       PRES   REMARKS
RAPID CTY ARPT CLOUDY    78  53  41 N22       29.82F
PIERRE         MOSUNNY   80  59  48 S18       29.79F
CUSTER         CLOUDY    67  40  37 SW12G18   29.96S
ELLSWORTH AFB  PTSUNNY   75  53  45 NW17G28   29.83S
PHILIP         CLOUDY    80  57  45 S17       29.79F
PINE RIDGE     SUNNY     80  43  26 W14G23    29.86F
WINNER         FAIR      79  58  48 S13G22    29.85F
$$

SDZ004>011-016>023-039-040-302000-
NORTHEAST SOUTH DAKOTA

CITY           SKY/WX    TMP DP  RH WIND       PRES   REMARKS
ABERDEEN       MOSUNNY   84  52  33 S18G31    29.86F
WATERTOWN      CLOUDY    81  55  40 S16       29.90F
BROOKINGS      CLOUDY    76  57  51 S15G23    29.91F
SISSETON         N/A     86  52  30 S14G21    29.86F
$$

SDZ017-020-022-023-036>040-048>070-302000-
SOUTHEAST SOUTH DAKOTA

CITY           SKY/WX    TMP DP  RH WIND       PRES   REMARKS
SIOUX FALLS    PTSUNNY   78  59  51 S16G22    29.91F
HURON          PTSUNNY   77  58  51 S17G25    29.85F
CHAMBERLAIN    MOSUNNY   77  62  58 S17       29.85F
MITCHELL       MOSUNNY   79  63  57 S16G29    29.87F
YANKTON          N/A     81  57  44 S13G24    29.88F
$$

ABBREVIATIONS USED IN REMARKS
   TC - TEMPERATURE IN CELSIUS
  WCI - WIND CHILL INDEX
   HX - HEAT INDEX
  VSB - VISIBILITY





USA.gov is the U.S. government's official web portal to all federal, state and local government web resources and services.